Wind_Speed
18 18 17 17 16 15 15 14 14 13 12 12 12 11 11 11 11 11 11 11 10 10 9 8 8 8 8 8 7 7 6 6 5 5 4 4 4 3 3 4 4 4 4
19 19 19 19 18 18 17 17 16 15 14 14 13 13 13 13 13 13 12 12 12 12 11 10 10 10 10 9 9 9 8 8 7 7 7 6 6 5 5 5 5 5 5
20 20 20 20 20 20 19 19 19 18 17 17 16 15 15 15 15 15 15 14 14 13 13 12 11 11 11 11 11 10 10 10 10 9 9 8 8 7 7 7 7 7 7
22 22 21 21 21 21 21 21 20 20 19 19 18 18 18 17 17 17 17 17 16 16 15 14 14 13 13 13 13 12 12 12 12 11 11 10 10 10 9 9 9 8 8
23 23 23 23 23 23 23 23 22 22 21 21 21 20 20 20 19 19 19 19 18 18 17 17 16 16 15 14 14 14 14 13 13 13 13 13 12 12 11 11 10 10 10
23 23 24 24 24 24 24 24 24 24 24 23 23 23 22 21 21 21 21 21 21 20 20 19 18 18 18 17 16 16 16 15 15 15 14 14 14 14 13 13 12 12 11
25 24 24 25 25 25 25 25 26 25 25 25 24 25 24 24 24 23 22 22 22 22 21 21 21 20 20 19 18 18 17 17 17 16 16 16 15 15 15 14 14 13 13
26 25 26 26 26 26 26 26 26 26 26 26 26 26 26 26 26 25 24 24 24 24 24 23 23 22 22 21 21 20 19 19 18 18 18 18 17 17 16 15 15 15 14
27 27 27 27 27 27 27 27 27 27 27 27 27 26 27 27 27 26 26 26 25 25 25 25 25 25 24 23 22 22 21 21 21 20 19 19 19 18 18 17 17 16 16
29 28 28 28 27 28 28 29 29 28 28 28 29 28 28 28 28 28 27 27 27 27 27 27 26 26 26 25 24 24 23 23 22 22 21 21 20 20 19 19 19 18 18
30 29 29 29 28 29 29 29 29 29 29 29 30 30 29 29 29 29 29 28 28 28 28 29 28 27 27 27 26 26 25 25 24 24 23 22 22 21 21 21 20 20 20
31 30 30 30 29 29 29 30 30 30 30 30 30 31 31 30 30 30 30 30 30 30 30 30 30 30 29 29 29 28 27 27 26 25 25 24 24 23 23 22 22 21 21
32 31 30 30 30 30 30 30 31 32 32 31 32 32 32 33 32 32 32 32 32 32 31 31 32 32 32 31 30 30 29 29 28 27 27 26 26 25 25 24 24 23 23
32 31 31 31 31 32 32 32 32 32 33 33 33 33 33 33 33 33 33 33 33 33 33 33 33 33 33 33 33 32 31 30 30 29 29 28 28 27 26 26 25 25 25
32 32 32 32 32 32 32 32 32 32 33 33 34 35 35 35 34 34 34 34 34 35 35 34 34 34 34 34 34 34 34 33 33 32 31 31 30 29 28 28 27 27 27
31 31 31 31 32 32 32 32 33 33 33 34 34 35 35 35 35 35 36 36 35 36 37 37 36 36 36 36 35 35 36 36 34 34 33 33 32 32 31 30 30 29 28
30 30 31 31 31 32 32 33 33 33 33 33 34 35 35 35 35 36 37 37 37 37 37 38 38 39 39 39 38 37 37 37 37 36 35 34 34 33 33 32 32 31 30
30 30 31 31 32 32 33 34 34 34 33 34 35 35 35 35 35 36 36 36 38 38 39 39 40 41 41 40 40 40 39 39 40 40 38 36 36 35 35 34 34 33 33
30 30 31 31 32 32 33 34 34 35 34 34 34 35 36 37 37 37 37 38 38 39 41 41 41 42 42 42 42 41 40 40 40 40 40 39 38 37 37 36 36 36 35
30 30 31 31 31 32 32 33 34 34 34 35 35 36 37 38 38 39 39 39 39 40 41 42 43 42 43 44 44 43 41 41 42 42 41 40 40 40 40 39 39 38 37
29 30 30 31 32 32 33 33 34 34 35 36 37 37 37 38 39 40 40 40 40 40 41 42 43 44 44 45 45 45 43 42 42 42 42 42 41 41 42 41 41 41 40
29 30 30 31 32 33 34 34 34 35 36 37 38 38 39 39 40 40 41 41 42 41 42 42 43 44 45 46 46 46 46 44 44 44 43 43 43 42 42 42 42 42 41
29 30 31 32 33 34 35 36 36 36 36 37 38 38 38 39 39 41 42 42 43 43 43 43 43 44 46 46 47 48 47 45 45 45 45 44 44 43 43 43 42 43 42
29 30 32 33 34 35 36 36 36 36 37 37 37 37 38 39 39 40 41 42 42 43 43 43 44 44 45 46 47 48 48 47 46 46 46 46 45 44 44 44 44 44 44
31 32 33 34 35 36 37 37 38 38 38 38 38 38 38 39 39 39 40 40 40 41 42 42 43 45 45 45 46 47 47 47 47 46 46 46 47 46 46 46 46 46 46
32 33 34 35 36 37 37 38 38 39 39 39 39 39 39 39 40 40 40 40 41 41 41 42 43 44 45 45 46 46 47 47 48 47 46 46 47 47 47 47 46 46 47
Wind_Direction
244 245 246 246 247 249 249 249 248 248 249 248 248 247 246 245 244 244 245 243 240 238 237 237 237 238 240 241 243 244 243 245 251 256 258 262 271 280 286 291 299 307 311
245 246 247 248 249 251 251 251 251 251 252 250 250 249 249 249 250 248 247 247 245 243 243 243 243 243 244 246 247 248 249 250 253 256 258 261 265 272 278 283 289 295 299
247 247 248 250 251 253 254 254 254 254 254 253 252 252 252 252 252 251 250 249 249 248 247 246 245 247 248 249 250 251 251 252 254 256 259 261 264 268 273 278 283 287 290
249 248 249 250 250 252 254 255 256 257 256 256 254 255 255 255 254 252 252 251 251 251 250 249 249 250 252 253 253 253 254 255 256 257 259 263 265 268 272 275 279 282 286
251 251 251 251 252 253 254 255 257 258 258 257 256 256 257 256 256 255 254 253 252 253 254 254 253 253 255 256 256 256 256 257 258 258 260 263 265 267 271 274 277 280 283
251 252 253 253 254 254 255 256 257 258 259 258 258 257 258 258 258 257 256 254 253 253 254 256 255 255 255 255 256 257 257 258 259 260 261 262 264 267 269 272 275 277 280
252 253 254 254 254 254 255 256 256 257 257 257 259 258 257 258 258 258 257 256 254 254 255 256 256 255 255 255 255 256 257 259 259 260 260 261 263 265 268 269 271 274 276
252 253 254 254 254 255 255 255 255 257 257 258 258 260 258 257 257 258 257 257 256 255 255 256 257 256 256 256 255 256 257 258 259 260 260 261 261 263 265 267 268 271 274
252 253 254 255 255 255 256 256 255 256 257 258 258 260 259 257 257 257 257 257 257 256 256 256 256 256 256 256 255 256 257 258 259 260 260 261 261 261 263 265 267 269 271
253 254 254 254 255 255 256 257 257 256 256 257 258 259 259 257 258 258 258 257 257 257 257 257 256 255 256 256 256 256 257 258 258 260 261 261 262 262 263 265 266 267 269
253 254 254 255 256 256 256 257 257 257 257 258 259 258 259 257 257 258 258 258 258 258 257 257 257 256 256 257 257 258 259 259 258 259 260 261 262 262 263 265 266 267 268
252 253 254 256 256 257 258 258 257 257 258 258 259 259 259 258 257 258 258 258 259 259 258 257 256 257 257 257 257 258 259 260 259 259 260 261 261 262 263 264 265 266 266
252 252 253 255 256 257 258 259 259 258 259 259 260 259 260 259 258 258 259 258 258 258 258 257 256 256 257 257 257 257 258 259 259 259 260 261 261 262 262 263 263 265 266
251 252 253 255 256 257 259 260 260 260 261 261 261 261 260 261 260 259 259 259 258 257 257 258 258 257 257 257 257 258 258 259 260 259 259 260 261 262 262 263 264 265 266
251 252 254 255 256 257 259 259 260 262 262 262 263 263 263 261 260 260 259 259 259 258 258 258 258 257 257 257 257 258 258 258 260 259 258 259 261 261 261 262 264 265 266
251 252 253 254 255 257 259 261 262 263 264 264 264 263 263 263 261 260 260 260 260 259 258 258 258 258 258 258 258 259 259 258 258 259 259 259 260 260 260 262 263 264 265
253 254 255 255 257 258 260 262 264 265 265 265 263 263 263 263 262 262 261 261 261 260 259 259 258 259 258 258 258 259 260 260 258 259 259 259 259 259 260 261 262 263 264
254 255 256 257 258 259 261 264 266 267 266 264 264 263 263 263 263 262 262 262 262 260 260 260 259 259 259 258 258 259 260 260 259 258 258 259 259 259 260 261 262 263 265
255 256 257 258 259 261 263 265 266 267 267 265 265 264 263 263 262 263 263 263 263 262 262 262 261 260 258 258 258 259 260 260 259 259 259 259 258 258 260 260 262 263 265
256 256 257 259 261 262 264 266 267 267 267 266 266 265 264 263 263 263 263 264 264 264 264 263 261 261 259 258 257 258 259 260 260 260 260 260 259 258 259 260 261 263 264
258 258 259 261 263 264 266 267 268 268 269 269 268 268 267 265 264 264 263 264 265 265 265 263 261 260 260 258 257 257 259 261 261 261 261 261 260 260 260 260 261 262 263
260 261 263 265 266 267 269 271 272 272 272 272 272 272 270 267 267 266 265 265 265 265 265 264 262 261 260 259 258 258 258 259 259 259 261 261 260 261 261 261 262 263 263
263 265 266 268 270 271 272 273 275 275 275 274 274 274 273 270 270 269 267 268 268 267 266 265 264 262 261 259 258 258 258 258 260 259 260 261 260 261 261 262 262 263 264
265 267 269 271 272 274 274 275 276 277 277 276 276 275 275 273 273 272 270 269 268 268 267 266 265 263 261 260 259 258 258 259 260 259 259 260 260 260 261 262 262 263 264
267 269 271 272 274 276 277 277 278 278 278 277 276 275 274 274 273 273 271 269 268 268 268 267 266 264 262 261 260 258 258 257 259 260 259 259 260 260 261 261 262 262 263
269 271 272 273 275 276 278 279 279 279 278 277 277 275 274 274 273 272 271 269 268 268 268 267 267 265 263 261 260 259 258 257 258 260 260 260 259 260 260 261 262 262 262
Height
5855 5856 5858 5859 5860 5861 5863 5864 5864 5865 5866 5867 5867 5868 5869 5869 5870 5870 5871 5871 5872 5872 5873 5873 5873 5874 5874 5874 5875 5875 5875 5876 5876 5876 5876 5876 5876 5876 5876 5876 5876 5876 5875
5852 5853 5855 5856 5857 5859 5860 5861 5862 5863 5864 5865 5865 5866 5867 5867 5868 5869 5869 5870 5870 5871 5871 5872 5872 5873 5873 5873 5874 5874 5874 5875 5875 5875 5875 5875 5875 5875 5875 5875 5875 5875 5875
5848 5850 5851 5853 5854 5856 5857 5858 5859 5860 5861 5862 5863 5864 5865 5865 5866 5867 5867 5868 5869 5869 5870 5870 5871 5871 5871 5872 5872 5872 5873 5873 5873 5874 5874 5874 5874 5874 5874 5874 5874 5874 5874
5845 5846 5848 5849 5851 5852 5853 5855 5856 5857 5858 5859 5860 5861 5862 5863 5863 5864 5865 5865 5866 5867 5868 5868 5869 5869 5870 5870 5870 5871 5871 5871 5872 5872 5872 5873 5873 5873 5873 5873 5873 5872 5872
5841 5842 5844 5845 5846 5848 5849 5851 5852 5853 5854 5855 5856 5857 5858 5859 5860 5861 5862 5863 5863 5864 5865 5866 5866 5867 5867 5868 5868 5869 5869 5869 5870 5870 5870 5871 5871 5871 5871 5871 5871 5871 5871
5837 5838 5839 5841 5842 5844 5845 5846 5848 5849 5850 5851 5852 5853 5854 5855 5856 5857 5858 5859 5860 5861 5862 5863 5863 5864 5864 5865 5865 5866 5866 5867 5867 5868 5868 5868 5868 5869 5869 5869 5869 5869 5869
5832 5834 5835 5836 5838 5839 5840 5842 5843 5844 5845 5847 5848 5848 5849 5851 5852 5853 5854 5855 5856 5857 5858 5859 5860 5860 5861 5862 5862 5863 5863 5864 5864 5865 5865 5865 5866 5866 5866 5866 5866 5866 5866
5827 5829 5830 5831 5833 5834 5835 5837 5838 5839 5841 5842 5843 5843 5844 5846 5847 5848 5849 5850 5851 5853 5854 5855 5856 5857 5857 5858 5859 5859 5860 5860 5861 5861 5862 5862 5862 5863 5863 5863 5863 5863 5863
5822 5824 5825 5826 5828 5829 5830 5831 5833 5834 5835 5836 5837 5838 5839 5840 5842 5843 5844 5845 5847 5848 5849 5850 5851 5852 5853 5854 5854 5855 5856 5857 5857 5858 5858 5859 5859 5859 5860 5860 5860 5860 5860
5816 5818 5820 5821 5822 5824 5825 5826 5827 5828 5829 5831 5832 5833 5834 5835 5836 5837 5839 5840 5841 5842 5844 5845 5846 5847 5848 5849 5850 5851 5852 5852 5853 5854 5854 5855 5855 5856 5856 5856 5857 5857 5857
5811 5812 5814 5815 5817 5818 5819 5820 5821 5822 5823 5825 5826 5827 5828 5829 5830 5832 5833 5834 5836 5837 5838 5839 5840 5841 5843 5844 5845 5846 5847 5848 5849 5850 5850 5851 5851 5851 5852 5852 5852 5853 5853
5804 5806 5808 5809 5810 5812 5813 5814 5815 5816 5817 5818 5819 5821 5822 5823 5824 5826 5827 5828 5830 5831 5832 5833 5834 5836 5837 5838 5839 5840 5842 5843 5844 5845 5845 5846 5846 5847 5847 5848 5848 5848 5849
5798 5800 5802 5803 5804 5805 5806 5807 5808 5810 5811 5812 5813 5814 5815 5816 5818 5819 5820 5822 5823 5824 5826 5827 5828 5829 5831 5832 5833 5835 5836 5837 5838 5839 5840 5841 5841 5842 5843 5843 5843 5844 5844
5791 5793 5795 5797 5798 5799 5800 5801 5802 5803 5804 5805 5806 5807 5808 5809 5811 5812 5813 5814 5816 5817 5819 5820 5821 5822 5824 5826 5827 5828 5830 5831 5832 5833 5834 5835 5836 5837 5837 5838 5838 5839 5839
5785 5787 5788 5790 5791 5792 5793 5794 5795 5796 5797 5798 5799 5800 5801 5802 5803 5804 5806 5807 5808 5810 5811 5813 5814 5815 5817 5818 5820 5821 5823 5824 5825 5826 5827 5828 5830 5831 5831 5832 5833 5833 5834
5778 5780 5782 5783 5784 5785 5786 5787 5788 5789 5790 5790 5791 5792 5793 5794 5795 5796 5798 5799 5800 5802 5803 5805 5806 5807 5809 5811 5812 5814 5815 5816 5817 5819 5820 5821 5823 5824 5825 5826 5826 5827 5828
5772 5774 5775 5777 5778 5779 5779 5780 5781 5781 5782 5783 5783 5784 5785 5786 5787 5788 5789 5791 5792 5793 5795 5796 5797 5799 5800 5802 5804 5806 5807 5808 5809 5811 5812 5814 5815 5817 5818 5819 5820 5820 5821
5766 5767 5769 5770 5771 5772 5773 5773 5773 5774 5774 5775 5775 5776 5777 5778 5778 5780 5781 5782 5783 5784 5785 5787 5789 5790 5791 5793 5795 5797 5798 5800 5801 5803 5804 5806 5807 5809 5810 5811 5812 5813 5814
5760 5761 5762 5763 5764 5765 5766 5766 5766 5766 5767 5767 5767 5768 5768 5769 5770 5771 5772 5773 5774 5775 5776 5778 5779 5781 5782 5784 5786 5788 5789 5791 5792 5794 5796 5797 5799 5801 5802 5803 5805 5806 5807
5754 5755 5756 5757 5757 5758 5758 5758 5758 5759 5758 5758 5759 5759 5760 5760 5761 5762 5763 5764 5765 5766 5767 5768 5769 5771 5772 5774 5776 5778 5780 5782 5783 5785 5786 5788 5790 5792 5794 5795 5796 5797 5798
5748 5749 5750 5750 5751 5751 5751 5751 5751 5751 5751 5750 5750 5750 5751 5751 5752 5753 5754 5755 5755 5756 5756 5757 5758 5760 5762 5764 5766 5768 5770 5772 5774 5775 5777 5779 5781 5782 5784 5786 5787 5788 5789
5742 5743 5743 5744 5744 5744 5744 5744 5743 5743 5743 5742 5742 5741 5741 5741 5742 5743 5744 5745 5745 5746 5746 5747 5748 5750 5752 5753 5756 5757 5760 5763 5764 5766 5767 5769 5771 5773 5775 5776 5778 5779 5780
5736 5736 5737 5737 5737 5737 5736 5736 5735 5735 5734 5734 5733 5732 5731 5731 5732 5732 5733 5734 5734 5735 5736 5737 5737 5739 5741 5743 5744 5747 5749 5752 5755 5756 5758 5759 5761 5763 5765 5766 5768 5769 5770
5730 5730 5730 5730 5729 5729 5728 5727 5727 5726 5726 5725 5724 5723 5722 5722 5722 5722 5723 5724 5724 5725 5725 5726 5727 5728 5730 5732 5733 5735 5738 5741 5743 5745 5747 5749 5750 5752 5754 5756 5757 5758 5759
5723 5723 5722 5722 5721 5721 5720 5719 5718 5717 5716 5715 5714 5714 5713 5713 5712 5712 5713 5713 5714 5714 5715 5716 5716 5717 5718 5720 5722 5724 5726 5729 5730 5733 5736 5738 5739 5741 5743 5744 5746 5747 5749
5716 5715 5715 5714 5713 5712 5711 5710 5709 5708 5707 5706 5705 5704 5703 5703 5703 5702 5703 5703 5704 5704 5705 5705 5705 5706 5707 5709 5710 5712 5715 5717 5719 5721 5724 5726 5728 5730 5731 5732 5734 5735 5737